Content
SEND FEEDBACK

Daily
Averages
Monthly
Summary
United States of America

BUNKER HILL, INDIANA


Home > North America > United States > Indiana
Elevation: 813 feet     Latitude: 40 39N     Longitude: 086 08W

WEATHER
 
SELECT A DAY
Number of Records: 172,213;   Date Range: 1/3/95 - 10/24/14
 
SHARE

PRINT THIS DATA

[ ← Previous Day ]
WEATHER ALMANAC - JANUARY 23, 2013
[ Next Day → ]
[ °C ]   °F
Weather ElementAverageHighLow
Temperature17.7 °F21.2 °F (9:41 pm)10.2 °F (2:55 am)
Dewpoint7.3 °F12.2 °F (6:02 pm)-0.9 °F (1:55 am)
Humidity64 %79 % (6:02 pm)49 % (11:55 am)
Barometer30.21 in30.38 in (1:55 am)30.13 in (8:55 pm)
Wind Speed10.4 mph19.6 mph (10:06 pm)
Wind Gust29.9 mph (10:38 pm)
Weather ElementAverage
Visibility10 mi
Wind DirectionW (264.6 °)

Weather ElementTotal
Precipitation---
Heating Degree Days49.3 (Base 65)
Averaged from 48 records on January 23, 2013
WEATHER CONDITIONS BREAKOUT
WIND DIRECTION BREAKOUT
WEATHER BY HOUR - JANUARY 23, 2013
[ °C ]   °F
Local TimeTemperatureDewpointHumidityBarometerVisibilityWind DirectionWind SpeedGust SpeedPrecipitationEventsConditions
1:55 AM10.8 °F-0.9 °F59 %30.38 in10.0 miWest (280°)10.4 mphOvercast
2:55 AM10.2 °F0.0 °F63 %30.36 in10.0 miWest (280°)6.9 mphOvercast
3:55 AM10.4 °F0.7 °F65 %30.36 in10.0 miWest (270°)8.1 mphOvercast
4:55 AM11.1 °F0.3 °F62 %30.35 in10.0 miWest (270°)9.2 mphOvercast
5:55 AM11.5 °F0.3 °F61 %30.34 in10.0 miWest (280°)8.1 mphOvercast
6:55 AM11.8 °F-0.2 °F58 %30.34 in10.0 miWest (270°)10.4 mphOvercast
7:55 AM12.0 °F0.3 °F59 %30.33 in10.0 miWSW (250°)8.1 mphOvercast
8:55 AM13.1 °F0.7 °F58 %30.32 in10.0 miWSW (240°)10.4 mphOvercast
9:55 AM14.4 °F1.4 °F56 %30.32 in10.0 miSW (230°)10.4 mphOvercast
10:34 AM15.8 °F1.4 °F53 %30.26 in10.0 miWSW (240°)11.5 mphOvercast
10:55 AM15.4 °F1.9 °F55 %30.32 in10.0 miSW (230°)10.4 mphOvercast
11:55 AM16.9 °F0.7 °F49 %30.29 in10.0 miWSW (240°)13.8 mphOvercast
12:55 PM18.0 °F3.6 °F53 %30.26 in10.0 miWest (270°)11.5 mphOvercast
1:09 PM17.6 °F5.0 °F58 %30.25 in10.0 miWest (260°)13.8 mphOvercast
1:44 PM19.4 °F5.0 °F54 %30.22 in10.0 miWSW (250°)16.1 mphOvercast
1:55 PM18.9 °F3.9 °F52 %30.21 in10.0 miWest (270°)12.7 mph0.00 inSnowLight Snow
2:55 PM19.4 °F5.4 °F55 %30.19 in10.0 miWest (270°)11.5 mph0.00 inSnowLight Snow
2:57 PM19.4 °F5.0 °F54 %30.19 in10.0 miWest (270°)11.5 mphSnowLight Snow
3:02 PM19.4 °F5.0 °F54 %30.19 in10.0 miWest (270°)12.7 mphOvercast
3:55 PM19.8 °F4.8 °F52 %30.18 in10.0 miWSW (250°)9.2 mphOvercast
4:13 PM19.4 °F5.0 °F54 %30.17 in10.0 miWSW (240°)15.0 mphSnowLight Snow
4:28 PM19.4 °F8.6 °F63 %30.17 in10.0 miWSW (250°)10.4 mphSnowLight Snow
4:41 PM19.4 °F8.6 °F63 %30.17 in10.0 miWSW (250°)11.5 mphSnowLight Snow
4:55 PM18.5 °F10.2 °F70 %30.17 in10.0 miWSW (240°)10.4 mph0.00 inSnowLight Snow
5:07 PM19.4 °F10.4 °F68 %30.17 in10.0 miWSW (240°)9.2 mphSnowLight Snow
5:55 PM18.5 °F11.8 °F75 %30.15 in10.0 miWSW (250°)5.8 mph0.00 inSnowLight Snow
6:02 PM17.6 °F12.2 °F79 %30.15 in10.0 miWSW (250°)5.8 mphOvercast
6:20 PM17.6 °F12.2 °F79 %30.16 in10.0 miWest (260°)5.8 mphSnowLight Snow
6:29 PM17.6 °F12.2 °F79 %30.16 in10.0 miWSW (250°)4.6 mphOvercast
6:43 PM19.4 °F12.2 °F74 %30.15 in10.0 miWSW (250°)5.8 mphOvercast
6:55 PM18.5 °F11.8 °F75 %30.15 in10.0 miWSW (240°)4.6 mph0.00 inOvercast
7:01 PM19.4 °F12.2 °F74 %30.14 in10.0 miSW (230°)4.6 mphOvercast
7:09 PM19.4 °F12.2 °F74 %30.14 in10.0 miWSW (240°)5.8 mphOvercast
7:28 PM19.4 °F12.2 °F74 %30.14 in10.0 miWSW (240°)4.6 mphOvercast
7:55 PM18.5 °F12.0 °F76 %30.14 in10.0 miWSW (240°)5.8 mphOvercast
8:55 PM19.2 °F12.0 °F74 %30.13 in10.0 miWSW (240°)5.8 mphOvercast
9:22 PM19.4 °F12.2 °F74 %30.14 in10.0 miWest (270°)6.9 mphOvercast
9:41 PM21.2 °F12.2 °F68 %30.14 in10.0 miWest (280°)9.2 mphSnowLight Snow
9:43 PM21.2 °F12.2 °F68 %30.15 in10.0 miWest (280°)10.4 mphOvercast
9:44 PM21.2 °F12.2 °F68 %30.15 in10.0 miWest (280°)9.2 mphSnowLight Snow
9:48 PM21.2 °F12.2 °F68 %30.14 in10.0 miWNW (290°)12.7 mphSnowLight Snow
9:52 PM21.2 °F12.2 °F68 %30.15 in10.0 miWNW (300°)15.0 mphSnowLight Snow
9:55 PM20.8 °F11.5 °F67 %30.15 in10.0 miWNW (300°)16.1 mph20.7 mph0.00 inSnowLight Snow
10:02 PM21.2 °F10.4 °F63 %30.15 in10.0 miNW (310°)16.1 mph25.3 mphOvercast
10:06 PM21.2 °F10.4 °F63 %30.15 in10.0 miNW (310°)19.6 mph25.3 mphLight Drizzle
10:38 PM19.4 °F8.6 °F63 %30.17 in10.0 miNNW (330°)18.4 mph29.9 mphOvercast
10:55 PM19.0 °F6.6 °F59 %30.16 in10.0 miNNW (330°)18.4 mph24.2 mph0.00 inScattered Clouds
11:55 PM18.1 °F7.3 °F63 %30.19 in10.0 miNW (320°)17.3 mphClear
Hourly data recorded from KGUS, located miles away from Bunker Hill, Indiana







STORIES FROM OUR PARTNERS